This is the latest recevied weather packets stored in our database for station/object WB6ANP. If no packets are shown the sender has not sent any weather packets the latest 1 day(s).
| Time | Temp. | Humidity | Pressure | Rain* | Wind** | Luminosity | Snow |
|---|---|---|---|---|---|---|---|
| 1778034806 | 17.78° C | 73% | 1008.3 hPa | 0 mm | 2.24 m/s, 56° | 0 W/m² | - |
| 1778034502 | 17.78° C | 72% | 1007.8 hPa | 0 mm | 2.68 m/s, 82° | 0 W/m² | - |
| 1778034200 | 18.33° C | 72% | 1007.7 hPa | 0 mm | 2.24 m/s, 78° | 0 W/m² | - |
| 1778033898 | 18.33° C | 72% | 1007.7 hPa | 0 mm | 2.24 m/s, 79° | 0 W/m² | - |
| 1778033595 | 18.33° C | 72% | 1007.8 hPa | 0 mm | 1.79 m/s, 75° | 0 W/m² | - |
| 1778033291 | 18.33° C | 72% | 1007.7 hPa | 0 mm | 2.24 m/s, 17° | 0 W/m² | - |
| 1778032989 | 18.33° C | 72% | 1007.7 hPa | 0 mm | 1.34 m/s, 60° | 0 W/m² | - |
| 1778032687 | 18.89° C | 71% | 1007.4 hPa | 0 mm | 1.34 m/s, 61° | 0 W/m² | - |
| 1778032384 | 18.89° C | 71% | 1007.4 hPa | 0 mm | 1.79 m/s, 37° | 0 W/m² | - |
| 1778032081 | 18.89° C | 70% | 1007.8 hPa | 0 mm | 0.89 m/s, 27° | 0 W/m² | - |
| 1778031777 | 18.89° C | 70% | 1007.5 hPa | 0 mm | 2.24 m/s, 22° | 0 W/m² | - |
| 1778031474 | 18.89° C | 70% | 1007.3 hPa | 0 mm | 2.24 m/s, 35° | 0 W/m² | - |
| 1778031171 | 19.44° C | 69% | 1007.1 hPa | 0 mm | 2.68 m/s, 20° | 0 W/m² | - |
| 1778030868 | 19.44° C | 69% | 1006.8 hPa | 0 mm | 2.24 m/s, 30° | 0 W/m² | - |
| 1778030565 | 19.44° C | 68% | 1006.9 hPa | 0 mm | 2.24 m/s, 46° | 1 W/m² | - |
| 1778030262 | 20° C | 69% | 1007 hPa | 0 mm | 1.79 m/s, 59° | 1 W/m² | - |
| 1778029958 | 20° C | 68% | 1007 hPa | 0 mm | 2.24 m/s, 18° | 3 W/m² | - |
| 1778029657 | 20° C | 68% | 1006.8 hPa | 0 mm | 1.34 m/s, 35° | 6 W/m² | - |
| 1778029354 | 20.56° C | 68% | 1006.3 hPa | 0 mm | 1.79 m/s, 41° | 11 W/m² | - |
| 1778029051 | 20.56° C | 68% | 1006 hPa | 0 mm | 1.79 m/s, 80° | 14 W/m² | - |
| 1778028748 | 20.56° C | 67% | 1005.8 hPa | 0 mm | 0.89 m/s, 77° | 16 W/m² | - |
| 1778028443 | 20.56° C | 67% | 1006 hPa | 0 mm | 2.68 m/s, 335° | 14 W/m² | - |
| 1778028141 | 21.11° C | 66% | 1005.8 hPa | 0 mm | 2.24 m/s, 24° | 13 W/m² | - |
| 1778027837 | 21.11° C | 66% | 1005.7 hPa | 0 mm | 4.02 m/s, 13° | 18 W/m² | - |
| 1778027534 | 21.11° C | 66% | 1006.1 hPa | 0 mm | 4.02 m/s, 34° | 22 W/m² | - |
* Rain latest hour (hover to see other rain measurements)
** Current wind speed in m/s (hover to see current wind gust speed)